Location: Apollinopolis Magna
(24.9792°N, 32.8772°E)
Time: 18:44:18
(UTC+00:00)

CSL-04 Debris - Pass Details

Date: 02 March 2021
Orbit: 827 x 848 km, 98.9° (Epoch: 09 April)

Event Time Altitude Azimuth Distance (km) Brightness Sun altitude
Rises 16:51:12 0° 156° (SSE) 3,360 7.1 -14.4°
Reaches altitude 10° 16:53:34 10° 153° (SSE) 2,431 6.3 -14.9°
Maximum altitude 16:58:51 58° 75° (ENE) 964 4.2 -16.1°
Drops below altitude 10° 17:04:11 10° 357° (N) 2,455 6.7 -17.3°
Sets 17:06:35 0° 353° (N) 3,395 7.4 -17.9°
